Content
SEND FEEDBACK

Daily
Averages
Monthly
Summary
United States of America

CARLISLE, SOUTH CAROLINA


Home > North America > United States > South Carolina
Elevation: 150 meters     Latitude: 34 38N     Longitude: 081 31W

WEATHER
 
SELECT A DAY
Number of Records: 125,778;   Date Range: 12/16/08 - 7/21/14
 
SHARE

PRINT THIS DATA

[ ← Previous Day ]
WEATHER ALMANAC - 13 FEBRUARY, 2013
[ Next Day → ]
[ °F ]   °C
Weather ElementAverageHighLow
Temperature8.1 °C10 °C (3:15 pm)5 °C (10:55 pm)
Dewpoint7.3 °C10 °C (3:15 pm)2 °C (11:35 pm)
Humidity95.1 %100 % (12:35 am)71 % (9:35 pm)
Barometer1008.8 hPa1012.9 hPa (12:35 am)1005.4 hPa (1:15 pm)
Wind Speed7.7 km/h18.5 km/h (2:35 pm)
Wind Gust29.6 km/h (3:15 pm)
Weather ElementAverage
Visibility12.6 km
Wind DirectionSE (140.3 °)

Weather ElementTotal
Precipitation4.06 mm
Heating Degree Days10.8 (Base 18.3)
Averaged from 67 records on 13 February, 2013
WEATHER CONDITIONS BREAKOUT
WIND DIRECTION BREAKOUT
WEATHER BY HOUR - 13 FEBRUARY, 2013
[ °F ]   °C
Local TimeTemperatureDewpointHumidityBarometerVisibilityWind DirectionWind SpeedGust SpeedPrecipitationEventsConditions
12:35 AM8 °C8 °C100 %1012.9 hPa16.1 kmNorth (10°)5.6 km/h1.52 mmRainRain
12:55 AM8 °C8 °C100 %1012.5 hPa16.1 kmNNE (20°)5.6 km/h1.52 mmLight Drizzle
1:15 AM8 °C8 °C100 %1012.2 hPa16.1 kmNorth (10°)9.3 km/hThunderstormOvercast
1:35 AM8 °C8 °C100 %1011.9 hPa16.1 kmNNE (20°)9.3 km/hOvercast
1:55 AM8 °C8 °C100 %1011.5 hPa16.1 kmNorth (10°)7.4 km/hOvercast
2:15 AM8 °C8 °C100 %1011.2 hPa16.1 kmNNE (30°)9.3 km/hThunderstormOvercast
2:35 AM8 °C8 °C100 %1011.2 hPa16.1 kmNNE (30°)11.1 km/hThunderstorm
2:55 AM8 °C7 °C93 %1011.2 hPa16.1 kmNNE (30°)11.1 km/hThunderstormOvercast
3:35 AM8 °C6 °C87 %1010.8 hPa11.3 kmNE (50°)7.4 km/hRain-ThunderstormRain
3:55 AM7 °C7 °C100 %1010.5 hPa16.1 kmNE (50°)5.6 km/hRainLight Rain
4:15 AM7 °C7 °C100 %1010.2 hPa11.3 kmEast (80°)9.3 km/hThunderstormDrizzle
4:35 AM7 °C7 °C100 %1010.2 hPa16.1 kmEast (80°)7.4 km/hOvercast
5:15 AM7 °C7 °C100 %1009.5 hPa16.1 kmEast (80°)5.6 km/hOvercast
5:35 AM7 °C7 °C100 %1009.5 hPa16.1 kmNE (40°)5.6 km/hOvercast
5:55 AM7 °C7 °C100 %1009.1 hPa16.1 kmNNE (20°)7.4 km/hOvercast
6:15 AM7 °C7 °C100 %1008.8 hPa16.1 kmNE (50°)9.3 km/hOvercast
6:35 AM7 °C7 °C100 %1009.5 hPa16.1 kmNNE (30°)9.3 km/hOvercast
6:55 AM7 °C7 °C100 %1009.1 hPa16.1 kmNNE (30°)9.3 km/hThunderstormOvercast
7:15 AM7 °C7 °C100 %1009.1 hPa11.3 kmNE (40°)9.3 km/hDrizzle
7:35 AM7 °C7 °C100 %1009.1 hPa8 kmNE (40°)9.3 km/hOvercast
7:55 AM7 °C7 °C100 %1008.8 hPa11.3 kmENE (70°)9.3 km/hOvercast
8:15 AM7 °C7 °C100 %1008.5 hPa8 kmENE (70°)9.3 km/hOvercast
8:35 AM7 °C7 °C100 %1008.8 hPa6.4 kmEast (80°)9.3 km/hOvercast
8:55 AM7 °C7 °C100 %1010.2 hPa11.3 kmCalmOvercast
9:15 AM7 °C7 °C100 %1009.1 hPa1.9 kmEast (80°)7.4 km/hRainLight Rain
9:35 AM7 °C7 °C100 %1009.1 hPa2.4 kmEast (80°)7.4 km/hDrizzle
9:55 AM7 °C7 °C100 %1008.5 hPa3.2 kmNE (40°)7.4 km/hLight Drizzle
10:15 AM7 °C7 °C100 %1008.1 hPa3.2 kmENE (70°)7.4 km/hLight Drizzle
10:55 AM8 °C8 °C100 %1008.1 hPa2.4 kmCalmOvercast
11:15 AM8 °C8 °C100 %1006.8 hPa3.2 kmEast (100°)9.3 km/hOvercast
11:35 AM8 °C8 °C100 %1007.8 hPa4 kmSSE (150°)5.6 km/hOvercast
11:55 AM8 °C8 °C100 %1006.1 hPa3.2 kmSE (130°)9.3 km/hOvercast
12:35 PM8 °C8 °C100 %1006.4 hPa1.9 kmCalmOvercast
12:55 PM8 °C8 °C100 %1006.4 hPa1.9 kmSouth (180°)5.6 km/hDrizzle
1:15 PM8 °C8 °C100 %1005.4 hPa2.4 kmWSW (240°)5.6 km/hLight Drizzle
1:35 PM8 °C8 °C100 %1006.1 hPa2.4 kmSSW (210°)7.4 km/h0.51 mmLight Drizzle
1:55 PM8 °C8 °C100 %1006.1 hPa2.9 kmSW (230°)7.4 km/h0.51 mmOvercast
2:15 PM9 °C9 °C100 %1005.4 hPa6.4 kmSW (230°)7.4 km/hOvercast
2:35 PM9 °C9 °C100 %1006.1 hPa16.1 kmSW (230°)18.5 km/h25.9 km/hOvercast
2:55 PM9 °C9 °C100 %1006.1 hPa16.1 kmSW (230°)9.3 km/hOvercast
3:15 PM10 °C10 °C100 %1006.1 hPa16.1 kmSW (230°)13 km/h29.6 km/hOvercast
3:35 PM10 °C10 °C100 %1005.8 hPa16.1 kmSW (220°)13 km/hOvercast
3:55 PM10 °C9 °C94 %1006.1 hPa16.1 kmSW (220°)13 km/hOvercast
4:15 PM10 °C9 °C94 %1006.1 hPa16.1 kmSW (220°)11.1 km/h27.8 km/hOvercast
4:35 PM10 °C9 °C94 %1005.8 hPa16.1 kmSW (220°)13 km/h29.6 km/hMostly Cloudy
4:55 PM10 °C9 °C94 %1005.4 hPa16.1 kmSW (220°)7.4 km/hMostly Cloudy
5:15 PM10 °C9 °C94 %1005.8 hPa16.1 kmSW (230°)7.4 km/hScattered Clouds
5:35 PM10 °C9 °C94 %1006.8 hPa16.1 kmSW (230°)7.4 km/hClear
5:55 PM10 °C9 °C94 %1006.8 hPa16.1 kmSW (220°)7.4 km/hClear
6:15 PM10 °C8 °C87 %1007.1 hPa16.1 kmSSW (210°)7.4 km/hClear
6:35 PM10 °C9 °C94 %1007.1 hPa16.1 kmSW (230°)5.6 km/hClear
6:55 PM10 °C9 °C94 %1007.1 hPa16.1 kmWSW (240°)7.4 km/hClear
7:15 PM10 °C8 °C87 %1007.8 hPa16.1 kmWSW (240°)5.6 km/hClear
7:35 PM10 °C8 °C87 %1008.1 hPa16.1 kmWSW (250°)5.6 km/hClear
7:55 PM10 °C8 °C87 %1008.5 hPa16.1 kmWest (260°)5.6 km/hScattered Clouds
8:15 PM9 °C8 °C93 %1008.8 hPa16.1 kmWest (280°)9.3 km/hClear
8:35 PM9 °C8 °C93 %1009.1 hPa16.1 kmWest (270°)7.4 km/hMostly Cloudy
8:55 PM9 °C8 °C93 %1009.1 hPa16.1 kmWest (270°)9.3 km/hOvercast
9:15 PM9 °C6 °C82 %1009.8 hPa16.1 kmWest (280°)13 km/hMostly Cloudy
9:35 PM8 °C3 °C71 %1010.2 hPa16.1 kmWest (280°)9.3 km/hScattered Clouds
9:55 PM8 °C3 °C71 %1010.8 hPa16.1 kmWest (280°)7.4 km/hClear
10:15 PM7 °C3 °C76 %1011.2 hPa16.1 kmWNW (300°)5.6 km/hClear
10:35 PM6 °C3 °C81 %1011.2 hPa16.1 kmWest (270°)5.6 km/hClear
10:55 PM5 °C3 °C87 %1011.5 hPa16.1 kmCalmClear
11:15 PM5 °C3 °C87 %1011.5 hPa16.1 kmWest (270°)7.4 km/hClear
11:35 PM5 °C2 °C81 %1012.2 hPa16.1 kmWNW (290°)7.4 km/hClear
11:55 PM5 °C2 °C81 %1012.2 hPa16.1 kmCalmClear
Hourly data recorded from KDCM, located 0 kilometers away from Carlisle, South Carolina







STORIES FROM OUR PARTNERS